Вернуться в каталог

STARLINK-3890

АктивенСвязьVLEO
NORAD 52455·PAYLOAD·🇺🇸 United States

Запущен May 6, 2022 с Cape Canaveral Space Force Station

Loading…

Ближайшие Пролёты (ближайшие 24 часа)

TLE

СвежийSource: CelesTrak SupGP

Эпоха: Sep 14, 2026, 20:54 UTC

1 52455C 22049E   26257.87131944  .00004290  00000+0  12276-3 0  2579
2 52455  53.1589 295.8059 0001066  76.6808 173.4927 15.35389766    17

Отслеживайте STARLINK-3890 в реальном времени с AllMySat

Download on the App Store